Location: Glencliff
(36.1226°N, 86.7183°W)
Time: 01:57:42
(UTC+00:00)

SL-16 R/B - Pass Details

Date: 25 August 2019
Orbit: 840 x 850 km, 71.0° (Epoch: 23 October)

Event Time Altitude Azimuth Distance (km) Brightness Sun altitude
Rises 07:11:59 0° 346° (NNW) 3,405 5.9 -39.2°
Reaches altitude 10° 07:14:38 10° 355° (N) 2,468 5.2 -38.9°
Enters shadow 07:17:45 28° 21° (NNE) 1,547 4.0 -38.6°
